"Pseudo-MPEC" for P11bV1U

Created 2021 Jan 14 11:07:23 UT using Find_Orb

Click here for an explanation of pseudo-MPECs

 
 Astrometry: 
     P11bV1U  C2021 01 12S#STAvpe_GuM9#6O21oWDq\^OF.fQ\@.iNPfDo%FE,_HCi4._]e)F51
     P11bV1U  C2021 01 12.h7HP$SgxbVLlvpaUp`bVb_Astrometryywm^42redacted;BC4dF51
     P11bV1U  C2021 01 12Z\:8j'6,8x4g9D]`mbyl9l+N$MKm7_)+xs3h%K+#9r=7UqwI3voMF51
     P11bV1U KC2021 01 13BTU![nLewX=qk`PpkTc=K!LvRO/Oy\KSkL5q@a7rs.Cdns49'RVRL01
     P11bV1U KC2021 01 13S](+2841N`e@2Tk-o(%ikH-click9uBS#tc/'F8fYP!DX;/x'=j4L01
     P11bV1U KC2021 01 133LmVqoc1k_dn3'#:N;'aE\+$QoVX2FGyM:UDd?/UXsIl!,)vgju#L01
     P11bV1U IC2021 01 13OyTDV31V40]N@(897GqeJc@QJI'7moB#A2jRB$bS\bEuymm=V8HZL01
     P11bV1U IC2021 01 13aOL.,AQ.Drt5$m@B#*Fx^mkVdog\0.?H)J0(v^q!d@wew\evtXAPL01
     P11bV1U KC2021 01 13vCychereZ0ZB)(LSmTfor)+K]`iW^TUt?QHQrxNpR7PbqLkTxx!,L01
     P11bV1U KC2021 01 13.31453010 18 52.29 +49 40 54.6    ~1D87 20.13GVNEOCPI52
     P11bV1U KC2021 01 13.31705210 18 52.18 +49 40 33.7    ~1D87 21.18GVNEOCPI52
     P11bV1U KC2021 01 13.31957410 18 52.09 +49 40 13.0    ~1D87 21.02GVNEOCPI52
     P11bV1U KC2021 01 13.32209710 18 52.00 +49 39 52.3    ~1D87 20.19GVNEOCPI52
     P11bV1U KC2021 01 13',1m!u+UPYO''TYT$1FTsqZK3p?Q3+oZ,k?;uxj#%K1^Y5p%CCQ#H36
     P11bV1U KC2021 01 13V62]0dJ;Y*!explanation$I!aW2hkWhKT2WNXH:;2$e'8I(LDM+H36
     P11bV1U KC2021 01 13s-q;Lcr:4L6^.n`Idr')y?-[\3%R;eLH6ANy:Cg@##X2L5jjMC6ZH36
     P11bV1U ^C2021 01 13.42044210 18 56.420+49 25 56.78   ~1DEM 20.79GVNEOCP568
     P11bV1U ^C2021 01 13.42142710 18 56.381+49 25 48.57   ~1DEM 20.72GVNEOCP568
     P11bV1U ^C2021 01 13.42274410 18 56.323+49 25 37.75   ~1DEM 20.48GVNEOCP568
     P11bV1U ^C2021 01 13.42375710 18 56.275+49 25 29.07   ~1DEM 20.35GVNEOCP568
     P11bV1U KC2021 01 14.30154810 19 09.64 +46 59 39.2    ~1E7q 19.87GVNEOCPI52
     P11bV1U KC2021 01 14.30827210 19 09.32 +46 58 26.8    ~1E7q 20.55GVNEOCPI52
     P11bV1U KC2021 01 14.31163710 19 09.14 +46 57 50.2    ~1E7q 19.86GVNEOCPI52

Station data:
(568) Mauna Kea  (N19.826116 W155.472200)  US/Hawaii.
(F51) Pan-STARRS 1, Haleakala  (N20.707235 W156.255910)  US/Hawaii.
   Observers N. Primak, A. Schultz, S. Watters, J. Thiel, T. Goggia. Measurer
   PS1 Science Consortium. 1.8-m Ritchey-Chrétien + CCD.
(H36) Sandlot Observatory, Scranton  (N38.797693 W95.706400)  US/Kansas.
   Observer G. Hug. 0.56-m reflector + CCD.
(I52) Steward Observatory, Mt. Lemmon Station  (N32.442547 W110.788920)
   US/Arizona.  Observers T. A. Pruyne, B. M. Africano, E. J. Christensen, G.
   A. Farneth, D. C. Fuls, A. R. Gibbs, A. D. Grauer, H. Gröller, J. A.
   Johnson, R. A. Kowalski, S. M. Larson, G. J. Leonard, D. Rankin, R. L.
   Seaman, F. C. Shelly. 1.0-m reflector + CCD.
(L01) Višnjan Observatory, Tičan  (N45.290900 E13.749300)  Croatia.
   Observers K. Korlević, E. Pettarin. Measurer E. Pettarin. 1.0-m f/2.9
   reflector + CCD.

Orbital elements:  P11bV1U
   Perihelion 2021 Mar 11.207233 +/- 0.0488956 TT =  4:58:25 (JD 2459284.707233)
Epoch 2021 Jan 14.0 TT = JDT 2459228.5   Earth MOID: 0.0149   Ma: 0.0938
M 321.37148290 +/- 0.0971620        (J2000 ecliptic)          AutoNEOCP
n   0.68725170 +/- 0.00112995       Peri.  245.68569 +/- 0.0399649
a   1.27172194 +/- 0.0013939        Node   299.42563 +/- 0.0019481
e   0.3254550 +/- 0.000813895       Incl.   20.81451 +/- 0.0373425
P   1.43/523.82d           H 25.5   G  0.15   U  8.2  
q 0.85783359 +/- 0.000115494    Q 1.68561028 +/- 0.00287601
From 23 observations 2021 Jan. 12-14 (43.1 hr); mean residual 0".27
Residuals in arcseconds: 
210112 F51  .01-  .12-    210113 L01  .16+  .13+    210113 568  .01+  .29+    
210112 F51  .07-  .04-    210113 I52  .06-  .32+    210113 568  .04+  .26+    
210112 F51  .07+  .04+    210113 I52  .11-  .03+    210113 568  .03+  .39+    
210113 L01  .20-  .27+    210113 I52  .05+  .03-    210113 568  .01-  .13+    
210113 L01  .23-  .37+    210113 I52  .24+  .05-    210114 I52  .09-  .17-    
210113 L01  .36-  .02-    210113 H36  .27-  .22+    210114 I52  .02+  .16+    
210113 L01  .23+  .20-    210113 H36  .28+  .47-    210114 I52  .05-  .06+    
210113 L01  .01-  .14+    210113 H36  .23+  1.3-    

Ephemerides (geocentric):
Date (UTC) HH   RA              Dec         delta   r     elong  mag " sig PA
---- -- -- --  -------------   -----------  ------ ------ -----  --- ---- ---
2021 01 14 11  10 19 02.363   +46 29 23.45  .05227 1.0241 139.8 20.6 .216  76
2021 01 14 12  10 19 02.880   +46 21 10.21  .05195 1.0239 139.9 20.6 .224  75
2021 01 14 13  10 19 03.387   +46 12 50.75  .05163 1.0237 140.0 20.6 .232  74
2021 01 14 14  10 19 03.885   +46 04 24.95  .05130 1.0235 140.1 20.6 .240  74
2021 01 14 15  10 19 04.372   +45 55 52.69  .05098 1.0233 140.2 20.6 .249  73
2021 01 14 16  10 19 04.849   +45 47 13.88  .05066 1.0231 140.2 20.6 .257  72
2021 01 14 17  10 19 05.316   +45 38 28.38  .05034 1.0229 140.3 20.5 .267  71
2021 01 14 18  10 19 05.773   +45 29 36.08  .05002 1.0227 140.4 20.5 .276  70
2021 01 14 19  10 19 06.220   +45 20 36.85  .04970 1.0225 140.5 20.5 .286  69
2021 01 14 20  10 19 06.657   +45 11 30.57  .04938 1.0223 140.6 20.5 .296  68
2021 01 14 21  10 19 07.083   +45 02 17.10  .04906 1.0221 140.7 20.5 .307  67
2021 01 14 22  10 19 07.499   +44 52 56.33  .04874 1.0219 140.7 20.5 .318  66
2021 01 14 23  10 19 07.904   +44 43 28.10  .04843 1.0216 140.8 20.4 .329  65
2021 01 15 00  10 19 08.300   +44 33 52.29  .04811 1.0214 140.9 20.4 .341  64
2021 01 15 01  10 19 08.685   +44 24 08.76  .04779 1.0212 141.0 20.4 .353  63
2021 01 15 02  10 19 09.059   +44 14 17.35  .04747 1.0210 141.1 20.4 .366  62
2021 01 15 03  10 19 09.423   +44 04 17.92  .04716 1.0208 141.2 20.4 .380  61
2021 01 15 04  10 19 09.777   +43 54 10.33  .04684 1.0206 141.3 20.4 .394  60
2021 01 15 05  10 19 10.120   +43 43 54.40  .04652 1.0204 141.4 20.3 .408  59
2021 01 15 06  10 19 10.453   +43 33 30.00  .04621 1.0202 141.5 20.3 .424  58
2021 01 15 07  10 19 10.775   +43 22 56.95  .04589 1.0200 141.6 20.3 .440  57
2021 01 15 08  10 19 11.086   +43 12 15.09  .04558 1.0198 141.7 20.3 .456  55
2021 01 15 09  10 19 11.387   +43 01 24.25  .04526 1.0196 141.7 20.3 .474  54
2021 01 15 10  10 19 11.677   +42 50 24.26  .04495 1.0194 141.8 20.2 .492  53
2021 01 15 11  10 19 11.957   +42 39 14.93  .04464 1.0192 141.9 20.2 .511  52
2021 01 15 12  10 19 12.225   +42 27 56.09  .04432 1.0190 142.0 20.2 .530  51
2021 01 15 13  10 19 12.483   +42 16 27.55  .04401 1.0188 142.1 20.2 .551  50
2021 01 15 14  10 19 12.731   +42 04 49.12  .04370 1.0186 142.2 20.2 .573  49
2021 01 15 15  10 19 12.967   +41 53 00.60  .04339 1.0184 142.3 20.2 .595  48
2021 01 15 16  10 19 13.192   +41 41 01.80  .04308 1.0182 142.4 20.1 .618  47
2021 01 15 17  10 19 13.407   +41 28 52.51  .04277 1.0180 142.5 20.1 .643  46
2021 01 15 18  10 19 13.610   +41 16 32.51  .04246 1.0178 142.6 20.1 .668  45
2021 01 15 19  10 19 13.802   +41 04 01.60  .04215 1.0176 142.7 20.1 .695  44
2021 01 15 20  10 19 13.984   +40 51 19.56  .04184 1.0174 142.8 20.1 .722  44
2021 01 15 21  10 19 14.154   +40 38 26.15  .04153 1.0171 142.9 20.0 .751  43
2021 01 15 22  10 19 14.313   +40 25 21.16  .04123 1.0169 143.0 20.0 .781  42
2021 01 15 23  10 19 14.461   +40 12 04.34  .04092 1.0167 143.1 20.0 .813  41
2021 01 16 00  10 19 14.598   +39 58 35.45  .04062 1.0165 143.2 20.0 .845  40
2021 01 16 01  10 19 14.723   +39 44 54.24  .04031 1.0163 143.3 20.0 .879  39
2021 01 16 02  10 19 14.837   +39 31 00.47  .04001 1.0161 143.5 19.9 .915  38
2021 01 16 03  10 19 14.940   +39 16 53.86  .03970 1.0159 143.6 19.9 .951  38
2021 01 16 04  10 19 15.031   +39 02 34.16  .03940 1.0157 143.7 19.9 .990  37
2021 01 16 05  10 19 15.111   +38 48 01.10  .03910 1.0155 143.8 19.9 1.03  36
2021 01 16 06  10 19 15.179   +38 33 14.38  .03880 1.0153 143.9 19.9 1.07  35
2021 01 16 07  10 19 15.236   +38 18 13.74  .03849 1.0151 144.0 19.9 1.11  35
2021 01 16 08  10 19 15.281   +38 02 58.87  .03819 1.0149 144.1 19.8 1.16  34
2021 01 16 09  10 19 15.314   +37 47 29.48  .03790 1.0147 144.2 19.8 1.21  33
2021 01 16 10  10 19 15.336   +37 31 45.26  .03760 1.0145 144.3 19.8 1.26  32